Location: Auttagershofen
(48.1940°N, 10.0237°E)
Time: 22:23:54
(UTC+00:00)

Lacrosse 5 rocket - Pass Details

Date: 11 April 2026
Orbit: 390 x 471 km, 57.0° (Epoch: 19 May)

Event Time Altitude Azimuth Distance (km) Brightness Sun altitude
Rises 19:58:13 0° 233° (SW) 2,293 4.7 -17.9°
Reaches altitude 10° 20:00:16 10° 234° (SW) 1,431 3.6 -18.2°
Maximum altitude 20:03:27 85° 322° (NW) 398 0.5 -18.6°
Enters shadow 20:04:20 45° 49° (NE) 550 1.2 -18.7°
